Weather History for St. Louis, MO

Change the Weather History Date:

Saturday, November 24, 2012

  Actual Average Record
Temperature  
Mean Temperature 32 °F 43 °F  
Max Temperature 39 °F 51 °F 74 °F (1966)
Min Temperature 24 °F 34 °F 3 °F (1950)
Degree Days  
Heating Degree Days 33 22  
Month to date heating degree days 433 405  
Since 1 July heating degree days 746 681  
Cooling Degree Days 0 0  
Month to date cooling degree days 4 0  
Year to date cooling degree days 2209 1642  
Moisture  
Dew Point 18 °F    
Average Humidity 57    
Maximum Humidity 74    
Minimum Humidity 40    
Precipitation  
Precipitation 0.00 in 0.14 in 3.08 in (2010)
Month to date precipitation 1.40 3.13  
Year to date precipitation 30.30 37.34  
Snow  
Snow 0.00 in 0.00 in 1.40 in (2004)
Month to date snowfall 0.0 0.4  
Since 1 July snowfall 0.0 0.4  
Since 1 September snowfall 0.0 0.4  
Snow Depth 0.00 in    
Sea Level Pressure  
Sea Level Pressure 30.26 in    
Wind  
Wind Speed 7 mph (WSW)    
Max Wind Speed 14 mph    
Max Gust Speed 18 mph    
Visibility 10 miles    
Events      
T = Trace of Precipitation, MM = Missing Value Source: NWS Daily Summary

Daily Weather History Graph

Daily Weather History Graph

Search for Another Location

Airport:

Trip Planner

Search our weather history database for the weather conditions in past years. The results will help you decide how hot, cold, wet, or windy it might be!

Date:

Astronomy

Nov. 24, 2012 Rise Set
Actual Time 6:54 AM CST 4:42 PM CST
Civil Twilight 6:25 AM CST 5:11 PM CST
Nautical Twilight 5:52 AM CST 5:44 PM CST
Astronomical Twilight 5:20 AM CST 6:15 PM CST
Moon 2:25 PM CST (11/24) 3:12 AM CST (11/24)
Length of Visible Light 10h 46m
Length of Day
9h 48m
Waxing Gibbous, 87% of the Moon is Illuminated
Nov 24
Waxing Gibbous
Nov 28
Full
Dec 6
Last Quarter
Dec 13
New
Dec 19
First Quarter

Hourly Weather History & Observations

Time (CST) Temp. Windchill Dew Point Humidity Pressure Visibility Wind Dir Wind Speed Gust Speed Precip Events Conditions
12:51 AM 27.0 °F 21.6 °F 17.1 °F 66% 30.37 in 10.0 mi WNW 4.6 mph - N/A   Clear
1:51 AM 27.0 °F 23.0 °F 17.1 °F 66% 30.36 in 10.0 mi WNW 3.5 mph - N/A   Clear
2:51 AM 27.0 °F 18.7 °F 17.1 °F 66% 30.37 in 10.0 mi West 8.1 mph - N/A   Partly Cloudy
3:51 AM 26.1 °F 18.4 °F 17.1 °F 69% 30.36 in 10.0 mi WNW 6.9 mph - N/A   Partly Cloudy
4:51 AM 25.0 °F 16.3 °F 17.1 °F 72% 30.36 in 10.0 mi WNW 8.1 mph - N/A   Clear
5:51 AM 25.0 °F 17.1 °F 17.1 °F 72% 30.37 in 10.0 mi West 6.9 mph - N/A   Partly Cloudy
6:51 AM 24.1 °F 14.4 °F 16.0 °F 71% 30.38 in 10.0 mi WNW 9.2 mph - N/A   Scattered Clouds
7:51 AM 26.1 °F 18.4 °F 16.0 °F 66% 30.38 in 10.0 mi WNW 6.9 mph - N/A   Mostly Cloudy
8:51 AM 28.0 °F 19.3 °F 16.0 °F 61% 30.39 in 10.0 mi WNW 9.2 mph - N/A   Mostly Cloudy
9:51 AM 28.9 °F 19.8 °F 17.1 °F 61% 30.40 in 10.0 mi West 10.4 mph - N/A   Mostly Cloudy
10:51 AM 32.0 °F 24.2 °F 17.1 °F 54% 30.38 in 10.0 mi West 9.2 mph - N/A   Mostly Cloudy
11:51 AM 33.1 °F 27.7 °F 17.1 °F 52% 30.34 in 10.0 mi West 5.8 mph - N/A   Mostly Cloudy
12:51 PM 34.0 °F 31.0 °F 17.1 °F 50% 30.30 in 10.0 mi Variable 3.5 mph - N/A   Mostly Cloudy
1:51 PM 36.0 °F 32.1 °F 17.1 °F 46% 30.27 in 10.0 mi West 4.6 mph - N/A   Mostly Cloudy
2:51 PM 37.9 °F 34.4 °F 18.0 °F 45% 30.23 in 10.0 mi Variable 4.6 mph - N/A   Mostly Cloudy
3:51 PM 39.0 °F 36.8 °F 18.0 °F 43% 30.22 in 10.0 mi SSW 3.5 mph - N/A   Mostly Cloudy
4:51 PM 37.0 °F 31.6 °F 18.0 °F 46% 30.21 in 10.0 mi SSW 6.9 mph - N/A   Mostly Cloudy
5:51 PM 36.0 °F 32.1 °F 17.1 °F 46% 30.18 in 10.0 mi South 4.6 mph - N/A   Mostly Cloudy
6:51 PM 36.0 °F 29.6 °F 19.0 °F 50% 30.15 in 10.0 mi SSE 8.1 mph - N/A   Mostly Cloudy
7:51 PM 35.1 °F 27.9 °F 19.0 °F 52% 30.13 in 10.0 mi SSE 9.2 mph - N/A   Mostly Cloudy
8:51 PM 35.1 °F 26.9 °F 19.9 °F 54% 30.09 in 10.0 mi SSE 11.5 mph - N/A   Mostly Cloudy
9:51 PM 35.6 °F 28.0 °F 19.4 °F 52% 30.04 in 10.0 mi South 10.4 mph - N/A   Overcast
10:51 PM 36.0 °F 31.1 °F 19.9 °F 52% 30.07 in 10.0 mi SSE 5.8 mph - N/A   Mostly Cloudy
11:51 PM 35.6 °F 29.2 °F 19.4 °F 52% 30.02 in 10.0 mi South 8.1 mph - N/A   Mostly Cloudy